Regional Weather Roundup
Issued by NWS

Home | Current Version | Previous Version | Text Only | Print | Product List | Glossary On
Versions: 1 2 3 4 5 6 7 8 9 10 11 12 13 14 15 16 17 18 19 20 21 22 23 24 25 26 27 28 29 30 31 32 33 34 35 36 37 38 39 40 41 42 43 44 45 46 47 48 49 50
000
ASUS43 KTOP 300308
RWRKS

WEATHER ROUNDUP FOR KANSAS
NATIONAL WEATHER SERVICE GOODLAND KS
1000 PM CDT THU SEP 29 2016

NOTE:  "FAIR" INDICATES FEW OR NO CLOUDS BELOW 12,000 FEET WITH NO
SIGNIFICANT WEATHER AND/OR OBSTRUCTIONS TO VISIBILITY.

KSZ001>006-013>018-027>032-041>047-300400-
NORTHWEST KANSAS

CITY           SKY/WX    TMP DP  RH WIND       PRES   REMARKS
GOODLAND       CLEAR     57  39  51 SE10      30.29R
HAYS           CLEAR     54  39  58 E7        30.33S
HILL CITY      CLEAR     49  45  86 E6        30.33R
RUSSELL        CLEAR     55  47  74 E8        30.32S
$$

KSZ061>065-074>080-084>089-300400-
SOUTHWEST KANSAS

CITY           SKY/WX    TMP DP  RH WIND       PRES   REMARKS
DODGE CITY     PTCLDY    54  42  64 SE9       30.33R
ELKHART          N/A     59  42  53 MISG        N/A
GARDEN CITY    PTCLDY    57  40  52 SE8       30.31R
GREAT BEND     CLEAR     55  41  58 E3        30.33R
LIBERAL        PTCLDY    59  37  44 SE8       30.32R
PRATT          CLOUDY    55  44  65 E6        30.33S
$$

KSZ066>073-081>083-090>101-300400-
SOUTHEAST KANSAS

CITY           SKY/WX    TMP DP  RH WIND       PRES   REMARKS
CHANUTE        CLEAR     55  49  80 NW3       30.30R
COFFEYVILLE    CLEAR     57  49  74 CALM      30.29R
HUTCHINSON     CLEAR     52  49  89 CALM      30.33R
MEDICINE LODGE   N/A     59  47  64 E5        30.32R
NEWTON         CLEAR     56  49  77 NE5       30.33R
PARSONS        CLEAR     55  50  83 NE3       30.30R
WICHITA INTL   CLEAR     62  50  64 NE5       30.31R
WICHITA JABRA  CLEAR     57  50  77 N5        30.31S
WICHITA MCCONL CLEAR     58  49  70 NE5       30.31R
WINFIELD       CLEAR     59  50  72 NE5       30.32R
$$

KSZ007>012-019>026-033>040-048>060-102>105-300400-
NORTHEAST KANSAS

CITY           SKY/WX    TMP DP  RH WIND       PRES   REMARKS
CONCORDIA      CLEAR     54  47  77 CALM      30.33S
EMPORIA        CLEAR     56  53  90 CALM      30.31S
LAWRENCE       CLEAR     52  51  97 NW5       30.31R
MANHATTAN      CLEAR     52  49  89 CALM      30.32R
MARYSVILLE     CLEAR     52  46  82 CALM      30.34R
OLATHE IND     CLEAR     54  49  83 N7        30.31R
OLATHE EXE     CLEAR     60  47  61 N5        30.30R
SALINA         CLEAR     56  48  74 CALM      30.33R
TOPEKA BILLARD CLEAR     55  50  83 CALM      30.31R
TOPEKA FORBES  CLEAR     54  50  86 NW3       30.31R
$$



USA.gov is the U.S. government's official web portal to all federal, state and local government web resources and services.